    Orbital elements:
    2019 KZ3                                                 Earth MOID = 0.0107 AU
    Epoch 2019 Apr. 27.0 TT = JDT 2458600.5                 MPC
    M 348.73335              (2000.0)            P               Q
    n   0.23473965     Peri.  186.20279     -0.10113133     +0.97997779
    a   2.6026259      Node    78.08714     -0.90507919     -0.01905278
    e   0.6064955      Incl.   10.09531     -0.41304252     -0.19819313
    P   4.20           H   24.1           G   0.15           U   4
    Residuals in seconds of arc
    190525 F51  0.0   0.1-    190531 A17  0.1-  0.2-    190531 033  0.2-  0.0
    190531 703  1.4-  0.6-    190531 203  0.0   0.1-    190531 033  0.1-  0.1-
    190531 703  1.3+  1.1-    190531 K87  0.1-  0.2-    190531 033  0.0   0.1-
    190531 703  0.7+  1.1+    190531 595  0.3-  0.2-    190531 I93  0.1-  0.2-
    190531 703  0.5-  1.3+    190531 K87  0.3-  0.6+    190531 K38  0.1+  0.0
    190531 F51  0.1-  0.1+    190531 203  0.3-  0.2-    190531 K38  0.5+  0.1-
    190531 I52  0.1+  0.0     190531 C95  0.2-  0.2-    190601 K38  0.1+  0.0
    190531 I52  0.3-  0.1-    190531 595  0.1+  0.1-    190601 J95  0.1+  0.1-
    190531 I52  0.1+  0.1+    190531 C95  0.0   0.4+    190601 W34  0.1-  0.1+
    190531 F51  0.0   0.1+    190531 C95  0.0   0.2+    190601 J95  0.7-  0.4+
    190531 F51  0.1-  0.1+    190531 595  0.1+  0.4-    190601 J95  0.0   0.2-
    190531 F51  0.2+  0.1+    190531 203  0.3+  0.0     190601 W34  0.4+  0.7+
    190531 033  0.2+  0.1-    190531 C77  0.4+  0.1+    190601 J95  0.4-  0.2-
    190531 033  0.3+  0.1-    190531 204  0.0   0.0     190601 W34  0.5+  0.2+
    190531 033  0.2+  0.2-    190531 C77  0.4+  0.3-    190601 H36  0.2+  0.4-
    190531 A17  0.0   0.1-    190531 204  0.1-  0.0     190601 H36  0.6+  0.6-
    190531 A17  0.1+  0.1-    190531 C77  0.4+  0.6-    190601 H36  0.2+  0.2+
    190531 L01  0.1-  0.1-    190531 204  0.3-  0.0     190601 H21  0.0   0.1+
    190531 L01  0.0   0.1-    190531 I93  0.3+  0.1-    190601 H36  0.2+  0.4-
    190531 L01  0.0   0.1-    190531 I93  0.1-  0.1+    190601 H21  0.0   0.3+
    190531 K87  0.1-  0.1-    190531 K38  0.1+  0.2-    190601 H21  0.2+  0.3+
    
    Ephemeris:
    2019 KZ3                 a,e,i = 2.60, 0.61, 10                  q = 1.0241
    Date    TT    R. A. (2000) Decl.     Delta      r     Elong.  Phase     V
    2019 05 02    13 57 48.7 +30 04 07   0.2140  1.1664   133.9    38.5    22.6
    ...
    2019 05 17    14 03 33.9 +32 10 26   0.1272  1.0881   124.4    50.1    21.7
    ...
    2019 05 25    14 17 58.4 +32 00 15   0.08171 1.0575   121.3    54.9    20.8
    ...
    2019 05 31    14 49 13.1 +29 57 14   0.04803 1.0407   122.9    54.9    19.6
    2019 06 01    14 59 05.6 +29 06 37   0.04255 1.0384   124.1    53.9    19.3
    2019 06 02    15 11 39.6 +27 55 48   0.03716 1.0363   125.9    52.5    19.0
    ...
    2019 06 08    19 09 36.1 -10 09 07   0.01454 1.0272   147.0    32.5    16.3
    ...
    2019 06 16    00 02 16.0 -36 52 08   0.04888 1.0243    98.7    78.6    20.3
    ...
    2019 07 01    00 55 28.0 -36 42 39   0.1310  1.0480   100.2    72.7    22.3
    
    A. U. Tomatic                (C) Copyright 2019 MPC           M.P.E.C. 2019-L07
    

    Read MPEC 2019-L06 Read MPEC 2019-L08


    MPEC number:

    Enter an MPEC number in one of the following forms:

    • 1997-B01 (the full form)
    • J97B01 (the packed version of the full form)
    • B01 (the abbreviated form)